Date String (YYYY-MM-DD hh:mm:ss) UTC,Instrument flags,absolute air pressure of the measurement (hPa),sample flow rate (lpm),inlet stack bypass flow (lpm),air temperature of the measurement (°C),ambient temperature measured by the external sensor (°C),aerosol sample conditioner tube jacket temperature (°C),OPC LED temperature (°C),internal box temperature (°C),relative humidity of the measurement (%),span deviation,mass concentration of particles derived from Lorenz-Mie calculation of OPC scattering (μg/m³),mass concentration of particles derived from Lorenz-Mie calculation of OPC scattering (μg/m³),mass concentration of particles derived from Lorenz-Mie calculation of OPC scattering (μg/m³)
DateTimeUTC,F1_M11,P_M11,Q1_M11,Q2_M11,T1_M11,T2_M11,T3_M11,T4_M11,T5_M11,U1_M11,ZSPAN_M11,X0_M11,X2_M11,X1_M11
2024-05-12 01:00:00,SystemResetWarning,0824.6,4.99,000.00,024.2,022.2,000.0,032.7,025.4,024.0,0000.0,0011.99,0004.54,0003.73
2024-05-12 01:01:00,SystemResetWarning,0824.6,5.00,000.00,024.2,022.6,000.0,032.6,025.7,023.6,0000.0,0011.75,0004.52,0003.72
2024-05-12 01:02:00,SystemResetWarning,0824.6,5.00,000.00,024.3,022.9,000.0,032.6,025.9,023.3,0000.0,0011.18,0004.48,0003.72
2024-05-12 01:03:00,SystemResetWarning,0824.6,5.01,000.00,024.4,023.2,000.0,032.5,026.1,023.3,0000.0,0010.93,0004.46,0003.71
2024-05-12 01:04:00,SystemResetWarning,0824.6,4.99,000.00,024.4,023.5,000.0,032.5,026.3,023.2,0000.0,0011.96,0004.45,0003.70
2024-05-12 01:05:00,SystemResetWarning,0824.5,4.99,000.00,024.5,023.7,000.0,032.6,026.4,023.1,0000.0,0012.65,0004.41,0003.68
2024-05-12 01:06:00,SystemResetWarning,0824.5,5.00,000.00,024.6,023.9,000.0,032.6,026.5,023.1,0000.0,0013.43,0004.39,0003.67
2024-05-12 01:07:00,SystemResetWarning,0824.5,5.01,000.00,024.7,024.1,000.0,032.6,026.6,023.0,0000.0,0015.69,0004.40,0003.67
2024-05-12 01:08:00,SystemResetWarning,0824.6,5.01,000.00,024.7,024.2,000.0,032.6,026.7,022.9,0000.0,0017.41,0004.38,0003.66
2024-05-12 01:09:00,SystemResetWarning,0824.5,5.00,000.00,024.8,024.4,000.0,032.7,026.8,023.2,0000.0,0016.81,0004.38,0003.64
2024-05-12 01:10:00,SystemResetWarning,0824.5,4.98,000.00,024.8,023.8,000.0,032.8,026.4,023.4,0000.0,0016.34,0004.35,0003.63
2024-05-12 01:11:00,SystemResetWarning,0824.5,5.01,000.00,024.5,022.0,000.0,032.8,025.5,023.9,0000.0,0015.67,0004.33,0003.60
2024-05-12 01:12:00,SystemResetWarning,0824.4,5.01,000.00,024.3,022.0,000.0,032.8,025.4,024.2,0000.0,0015.99,0004.31,0003.59
2024-05-12 01:13:00,SystemResetWarning,0824.5,4.99,000.00,024.2,022.3,000.0,032.7,025.5,024.4,0000.0,0016.48,0004.31,0003.57
2024-05-12 01:14:00,SystemResetWarning,0824.5,5.00,000.00,024.3,022.6,000.0,032.7,025.7,024.5,0000.0,0016.76,0004.36,0003.57
2024-05-12 01:15:00,SystemResetWarning,0824.6,5.00,000.00,024.3,023.0,000.0,032.6,026.0,024.5,0000.0,0016.92,0004.38,0003.57
2024-05-12 01:16:00,SystemResetWarning,0824.5,5.01,000.00,024.4,023.3,000.0,032.6,026.1,024.2,0000.0,0016.36,0004.43,0003.57
2024-05-12 01:17:00,SystemResetWarning,0824.5,5.01,000.00,024.5,023.5,000.0,032.6,026.3,024.3,0000.0,0016.49,0004.44,0003.56
2024-05-12 01:18:00,SystemResetWarning,0824.5,5.00,000.00,024.5,023.7,000.0,032.6,026.4,024.1,0000.0,0015.54,0004.47,0003.57
2024-05-12 01:19:00,SystemResetWarning,0824.5,5.00,000.00,024.6,023.9,000.0,032.6,026.5,023.8,0000.0,0013.56,0004.47,0003.56
2024-05-12 01:20:00,SystemResetWarning,0824.5,4.99,000.00,024.7,024.1,000.0,032.6,026.6,023.7,0000.0,0012.85,0004.44,0003.57
2024-05-12 01:21:00,SystemResetWarning,0824.5,5.00,000.00,024.8,024.3,000.0,032.7,026.7,023.4,0000.0,0012.59,0004.42,0003.57
2024-05-12 01:22:00,SystemResetWarning,0824.5,5.00,000.00,024.9,024.4,000.0,032.7,026.8,023.3,0000.0,0012.81,0004.42,0003.59
2024-05-12 01:23:00,SystemResetWarning,0824.5,4.99,000.00,024.8,023.3,000.0,032.8,026.2,023.3,0000.0,0013.89,0004.46,0003.59
2024-05-12 01:24:00,SystemResetWarning,0824.3,5.00,000.00,024.3,021.1,000.0,032.9,025.0,023.7,0000.0,0014.86,0004.49,0003.58
2024-05-12 01:25:00,SystemResetWarning,0824.4,5.01,000.00,024.0,020.8,000.0,032.8,024.7,024.4,0000.0,0015.30,0004.48,0003.59
2024-05-12 01:26:00,SystemResetWarning,0824.3,5.00,000.00,023.9,021.2,000.0,032.7,024.9,024.5,0000.0,0015.03,0004.46,0003.59
2024-05-12 01:27:00,SystemResetWarning,0824.4,5.00,000.00,023.9,021.7,000.0,032.6,025.2,024.9,0000.0,0014.35,0004.45,0003.59
2024-05-12 01:28:00,SystemResetWarning,0824.4,5.00,000.00,023.9,022.1,000.0,032.5,025.5,024.4,0000.0,0014.31,0004.46,0003.60
2024-05-12 01:29:00,SystemResetWarning,0824.4,5.01,000.00,024.0,022.5,000.0,032.4,025.6,025.3,0000.0,0013.72,0004.41,0003.60
2024-05-12 01:30:00,SystemResetWarning,0824.4,5.00,000.00,024.1,022.9,000.0,032.4,025.8,026.3,0000.0,0014.22,0004.35,0003.60
2024-05-12 01:31:00,SystemResetWarning,0824.4,4.99,000.00,024.2,023.2,000.0,032.4,026.0,026.2,0000.0,0014.35,0004.34,0003.58
2024-05-12 01:32:00,SystemResetWarning,0824.4,4.99,000.00,024.2,023.4,000.0,032.4,026.1,025.3,0000.0,0014.11,0004.34,0003.57
2024-05-12 01:33:00,SystemResetWarning,0824.4,5.01,000.00,024.3,023.6,000.0,032.4,026.3,025.6,0000.0,0014.09,0004.31,0003.53
2024-05-12 01:34:00,SystemResetWarning,0824.4,5.02,000.00,024.4,023.8,000.0,032.4,026.3,025.5,0000.0,0013.09,0004.25,0003.51
2024-05-12 01:35:00,SystemResetWarning,0824.5,5.00,000.00,024.5,024.0,000.0,032.5,026.4,025.3,0000.0,0011.30,0004.19,0003.48
2024-05-12 01:36:00,SystemResetWarning,0824.5,4.99,000.00,024.6,024.1,000.0,032.5,026.5,025.1,0000.0,0010.92,0004.16,0003.43
2024-05-12 01:37:00,SystemResetWarning,0824.5,5.00,000.00,024.6,024.2,000.0,032.5,026.6,024.8,0000.0,0011.43,0004.13,0003.40
2024-05-12 01:38:00,SystemResetWarning,0824.5,5.00,000.00,024.7,024.4,000.0,032.6,026.7,025.2,0000.0,0011.76,0004.08,0003.36
2024-05-12 01:39:00,SystemResetWarning,0824.5,5.01,000.00,024.8,024.5,000.0,032.6,026.7,025.2,0000.0,0011.53,0004.05,0003.32
2024-05-12 01:40:00,SystemResetWarning,0824.5,4.99,000.00,024.7,023.4,000.0,032.7,026.2,025.4,0000.0,0011.39,0004.02,0003.29
2024-05-12 01:41:00,SystemResetWarning,0824.4,5.01,000.00,024.4,021.8,000.0,032.8,025.3,025.9,0000.0,0010.66,0003.99,0003.26
2024-05-12 01:42:00,SystemResetWarning,0824.4,5.01,000.00,024.2,021.9,000.0,032.8,025.3,026.3,0000.0,0010.38,0004.01,0003.24
2024-05-12 01:43:00,SystemResetWarning,0824.4,4.99,000.00,024.2,022.2,000.0,032.7,025.5,026.3,0000.0,0010.82,0004.03,0003.23
2024-05-12 01:44:00,SystemResetWarning,0824.5,5.00,000.00,024.2,022.6,000.0,032.6,025.7,026.3,0000.0,0011.76,0004.04,0003.23
2024-05-12 01:45:00,SystemResetWarning,0824.5,5.00,000.00,024.3,022.9,000.0,032.5,025.9,026.1,0000.0,0013.32,0004.11,0003.23
2024-05-12 01:46:00,SystemResetWarning,0824.5,5.01,000.00,024.3,023.2,000.0,032.5,026.1,025.9,0000.0,0014.05,0004.19,0003.23
2024-05-12 01:47:00,SystemResetWarning,0824.5,5.00,000.00,024.4,023.5,000.0,032.5,026.2,025.5,0000.0,0014.49,0004.18,0003.23
2024-05-12 01:48:00,SystemResetWarning,0824.6,4.99,000.00,024.5,023.7,000.0,032.5,026.4,025.5,0000.0,0013.69,0004.17,0003.22
2024-05-12 01:49:00,SystemResetWarning,0824.5,4.99,000.00,024.5,023.9,000.0,032.6,026.5,025.0,0000.0,0013.24,0004.19,0003.22
2024-05-12 01:50:00,SystemResetWarning,0824.6,5.00,000.00,024.6,024.1,000.0,032.6,026.6,024.9,0000.0,0013.27,0004.14,0003.22
2024-05-12 01:51:00,SystemResetWarning,0824.6,5.01,000.00,024.7,024.2,000.0,032.6,026.7,024.7,0000.0,0013.41,0004.13,0003.21
2024-05-12 01:52:00,SystemResetWarning,0824.7,5.01,000.00,024.8,024.4,000.0,032.7,026.7,024.6,0000.0,0013.89,0004.16,0003.20
2024-05-12 01:53:00,SystemResetWarning,0824.6,5.00,000.00,024.8,024.0,000.0,032.7,026.5,024.4,0000.0,0014.04,0004.14,0003.18
2024-05-12 01:54:00,SystemResetWarning,0824.5,4.99,000.00,024.5,022.2,000.0,032.8,025.5,024.8,0000.0,0013.70,0004.10,0003.17
2024-05-12 01:55:00,SystemResetWarning,0824.5,5.01,000.00,024.3,021.8,000.0,032.9,025.3,025.2,0000.0,0012.79,0004.07,0003.16
2024-05-12 01:56:00,SystemResetWarning,0824.5,5.00,000.00,024.2,022.1,000.0,032.7,025.4,025.5,0000.0,0011.54,0004.02,0003.16
2024-05-12 01:57:00,SystemResetWarning,0824.6,5.00,000.00,024.2,022.5,000.0,032.6,025.6,025.0,0000.0,0011.17,0003.93,0003.15
2024-05-12 01:58:00,SystemResetWarning,0824.7,5.00,000.00,024.3,022.8,000.0,032.6,025.8,024.7,0000.0,0010.50,0003.93,0003.14
2024-05-12 01:59:00,SystemResetWarning,0824.7,5.01,000.00,024.3,023.1,000.0,032.6,026.1,024.6,0000.0,0010.42,0003.92,0003.13
